ONEWEB-0065, 45164

Orbit data source: Space-Track

ONEWEB-0065, 45164 is a payload satellite owned by One Web (UK) in LEO that was launched on Thu, 06 Feb 2020 UTC via a SOYUZ-2-1B launch vehicle from the Tyuratam Missile And Space Complex (TTMTR). Payload-class satellites include a variety of spacecraft equipped with specific instruments for various scientific and technological missions. These include communications satellites like Starlink; space stations such as the ISS; scientific satellites like the Hubble; Earth observation satellites from companies like Planet Labs, Umbra, and HawkEye 360; GPS; miniature CubeSats for education and research; and military/defense satellites.

Loading next visibility...
Identifier
45164, 2020-008AK
Orbit
LEO
Country
Flag of UKUK
Related business
Manufacturer
One Web
Mission
Operational Commercial Communications
Bus & Motor
ARROW, Unknown motor
Mass
148 kg wet, ~140 kg dry
Launch date (UTC)
2020-02-06 (6 years ago)
Launch vehicle
SOYUZ-2-1B
Launch site
Tyuratam Missile And Space Complex (TTMTR)
Object type
Payload
Rocket body
Debris
Shape & HBR
Trap Box + 2 Pan, 6.7 m
Radar Cross Section
3.464 m², Large (>1 m²)

Expand to show TLE details & history
Last TLE update: 8 hours ago

TLE from 8 hours ago
0 ONEWEB-0065
1 45164U 20008AK  25300.09358203  .00000341  00000-0  94031-3 0  9998
2 45164  87.8767  82.7560 0001437  82.9548 277.1743 13.10369431277350
Epoch: 2025-10-27T02:14Z
TLE epoch observation values (Epoch: 2025-10-27T02:14:45.487Z)
Latitude
0.00001°
Longitude
13.3661°
Altitude
1,224.481 km
Speed
7.242 km/s
True Right ascension
05h 31m 01s
True Declination
0° 00' 00"
Sunlit
Object was in full shadow at epoch
Visualization orbit readout
Latitude
Unknown
Longitude
Unknown
Altitude
Unknown
Speed
Unknown
Apparent Right ascension
Unknown
Apparent Declination
Unknown
Sunlit
N/A
Visualization observer readout
Local Sidereal Time
05:19:43
Azimuth
Unknown
Elevation
Unknown
Doppler factor
Unknown
Orbital elements
Apogee altitude
1,219.942 km
Perigee altitude
1,217.758 km
Semi-major axis
7,596.987 km
Eccentricity
0.00014
Inclination
87.8767°
RAAN
82.756°
Arg. of periapsis
82.9548°
True anomaly
277.15796°
Mean anomaly
277.1743°
Eccentric anomaly
277.16613°
Mean motion
3.27779 °/min
Orbital period
109.83 mins
BSTAR
0.00094031
Loading maneuver chart data...
Computing Atmospheric mass density...
Loading historical data...
Loading historical data...
Loading historical data...
Loading historical data...
Loading historical data...
Loading historical data...
Loading historical data...

Documentation

Showing up to 5 results
|